CZ-3B DEB, 39334

Orbit data source: Space-Track

CZ-3B DEB, 39334 is space debris in HEO originally from a launch on Sat, 04 Sep 2010 UTC launched from the Xichang Space Center, China (XSC). Debris objects in space refer to the collection of defunct objects orbiting the Earth. Examples of debris include non-operational satellites, rocket bodies, and fragments generated from explosions, collisions, or faulty payload assembly.

Loading next visibility...
Identifier
39334, 2010-042F
Orbit
HEO
Country
Flag of CNCN / PRC
Related business
Manufacturer
CALT
Mission
Spacecraft
Bus & Motor
Unknown
Mass
Unknown
Launch date (UTC)
2010-09-04 (15 years ago)
Launch vehicle
Unknown
Launch site
Xichang Space Center, China (XSC)
Object type
Payload
Rocket body
Debris
Shape & HBR
Unknown shape, 0.3 m
Radar Cross Section
Medium (>0.1 m² and <1 m²)

Expand to show TLE details & history
Last TLE update: 9 hours ago

TLE from 9 hours ago
0 CZ-3B DEB
1 39334U 10042F   26037.52528230 -.00000123  00000-0  00000-0 0  9991
2 39334  26.2608 271.7276 7352069 352.1838 175.1489  1.86386010 95385
Epoch: 2026-02-06T12:36Z
TLE epoch observation values (Epoch: 2026-02-06T12:36:24.390Z)
Latitude
3.91127°
Longitude
118.01812°
Altitude
41,982.397 km
Speed
1.481 km/s
True Right ascension
05h 35m 07s
True Declination
3° 54' 28"
Sunlit
Object was in daylight at epoch
Visualization orbit readout
Latitude
Unknown
Longitude
Unknown
Altitude
Unknown
Speed
Unknown
Apparent Right ascension
Unknown
Apparent Declination
Unknown
Sunlit
N/A
Visualization observer readout
Local Sidereal Time
23:32:13
Azimuth
Unknown
Elevation
Unknown
Doppler factor
Unknown
Orbital elements
Apogee altitude
42,024.267 km
Perigee altitude
1,008.085 km
Semi-major axis
27,894.313 km
Eccentricity
0.73521
Inclination
26.2608°
RAAN
271.7276°
Arg. of periapsis
352.1838°
True anomaly
178.90752°
Mean anomaly
175.1489°
Eccentric anomaly
177.20384°
Mean motion
0.46588 °/min
Orbital period
772.74 mins
BSTAR
0
Loading maneuver chart data...
Computing Atmospheric mass density...
Loading historical data...
Loading historical data...
Loading historical data...
Loading historical data...
Loading historical data...
Loading historical data...
Loading historical data...

Documentation

Showing up to 5 results
|